Location: Hopville
(44.8032°N, 123.1329°W)
Time: 17:27:45
(UTC+00:00)

Cosmos 2360 Rocket - Pass Details

Date: 24 January 2021
Orbit: 832 x 846 km, 71.0° (Epoch: 01 March)

Event Time Altitude Azimuth Distance (km) Brightness Sun altitude
Exits shadow 13:29:48 12° 345° (NNW) 2,327 4.3 -22.9°
Drops below altitude 10° 13:30:34 10° 352° (N) 2,463 4.5 -22.8°
Sets 13:34:15 0° 16° (NNE) 3,405 5.5 -22.1°
